status,avgMeasuredTime,avgSpeed,extID,medianMeasuredTime,TIMESTAMP,vehicleCount,_id,REPORT_ID
OK,138,22,721,138,2014-08-01T07:50:00,1,20746273,193000
OK,138,22,721,138,2014-08-01T07:55:00,1,20746445,193000
OK,205,15,721,205,2014-08-01T08:00:00,1,20746776,193000
OK,205,15,721,205,2014-08-01T08:05:00,1,20747225,193000
OK,205,15,721,205,2014-08-01T08:10:00,0,20747598,193000
OK,205,15,721,205,2014-08-01T08:15:00,0,20748047,193000
OK,146,21,721,146,2014-08-01T08:20:00,1,20748496,193000
OK,146,21,721,146,2014-08-01T08:25:00,0,20748945,193000
OK,146,21,721,146,2014-08-01T08:30:00,0,20749394,193000
OK,146,21,721,146,2014-08-01T08:35:00,0,20749843,193000
OK,66,47,721,66,2014-08-01T08:40:00,1,20750292,193000
OK,66,47,721,66,2014-08-01T08:45:00,1,20750741,193000
OK,66,47,721,66,2014-08-01T08:50:00,0,20751190,193000
OK,134,23,721,134,2014-08-01T08:55:00,2,20751639,193000
OK,158,19,721,158,2014-08-01T09:00:00,3,20752088,193000
OK,154,20,721,154,2014-08-01T09:05:00,4,20752537,193000
OK,154,20,721,154,2014-08-01T09:10:00,4,20752986,193000
OK,161,19,721,161,2014-08-01T09:15:00,1,20753435,193000
OK,141,22,721,141,2014-08-01T09:20:00,1,20753884,193000
OK,141,22,721,141,2014-08-01T09:25:00,1,20754333,193000
OK,124,25,721,124,2014-08-01T09:30:00,2,20754782,193000
OK,126,24,721,126,2014-08-01T09:35:00,3,20755231,193000
OK,184,17,721,184,2014-08-01T09:40:00,1,20755680,193000
OK,184,17,721,184,2014-08-01T09:45:00,0,20756129,193000
OK,104,30,721,104,2014-08-01T09:50:00,1,20756578,193000
OK,104,30,721,104,2014-08-01T09:55:00,1,20757027,193000
OK,104,30,721,104,2014-08-01T10:00:00,0,20757476,193000
OK,104,30,721,104,2014-08-01T10:05:00,0,20757925,193000
OK,104,30,721,104,2014-08-01T10:10:00,0,20758374,193000
OK,140,22,721,140,2014-08-01T10:15:00,1,20758823,193000
OK,130,24,721,130,2014-08-01T10:20:00,1,20759272,193000
OK,130,24,721,130,2014-08-01T10:25:00,1,20759721,193000
OK,121,25,721,121,2014-08-01T10:30:00,1,20760170,193000
OK,142,22,721,142,2014-08-01T10:35:00,1,20760619,193000
OK,142,22,721,142,2014-08-01T10:40:00,1,20761068,193000
OK,142,22,721,142,2014-08-01T10:45:00,0,20761517,193000
OK,157,19,721,157,2014-08-01T10:50:00,1,20761966,193000
OK,157,19,721,157,2014-08-01T10:55:00,1,20762415,193000
OK,157,19,721,157,2014-08-01T11:00:00,0,20762864,193000
OK,157,19,721,157,2014-08-01T11:05:00,0,20763313,193000
OK,80,39,721,80,2014-08-01T11:10:00,1,20763762,193000
OK,71,44,721,71,2014-08-01T11:15:00,2,20764211,193000
OK,62,50,721,62,2014-08-01T11:20:00,1,20764659,193000
OK,169,18,721,169,2014-08-01T11:25:00,1,20765108,193000
OK,167,18,721,167,2014-08-01T11:30:00,2,20765557,193000
OK,165,19,721,165,2014-08-01T11:35:00,1,20766006,193000
OK,127,24,721,127,2014-08-01T11:40:00,2,20766455,193000
OK,101,31,721,101,2014-08-01T11:45:00,1,20766904,193000
OK,75,41,721,75,2014-08-01T11:50:00,1,20767353,193000
OK,75,41,721,75,2014-08-01T11:55:00,1,20767802,193000
OK,75,41,721,75,2014-08-01T12:00:00,0,20768251,193000
OK,73,43,721,73,2014-08-01T12:05:00,1,20768700,193000
OK,73,43,721,73,2014-08-01T12:10:00,3,20769149,193000
OK,114,27,721,114,2014-08-01T12:15:00,2,20769598,193000
OK,119,26,721,119,2014-08-01T12:20:00,3,20770047,193000
OK,135,23,721,135,2014-08-01T12:25:00,2,20770496,193000
OK,107,29,721,107,2014-08-01T12:30:00,2,20770945,193000
OK,109,28,721,109,2014-08-01T12:35:00,1,20771394,193000
OK,109,28,721,109,2014-08-01T12:40:00,0,20771843,193000
OK,109,28,721,109,2014-08-01T12:45:00,0,20772292,193000
OK,109,28,721,109,2014-08-01T12:50:00,0,20772741,193000
OK,82,38,721,82,2014-08-01T12:55:00,3,20773190,193000
OK,82,38,721,82,2014-08-01T13:00:00,3,20773639,193000
OK,118,26,721,118,2014-08-01T13:05:00,0,20774088,193000
OK,118,26,721,118,2014-08-01T13:10:00,0,20774537,193000
OK,118,26,721,118,2014-08-01T13:15:00,0,20774986,193000
OK,118,26,721,118,2014-08-01T13:20:00,0,20775435,193000
OK,118,26,721,118,2014-08-01T13:25:00,0,20775884,193000
OK,139,22,721,139,2014-08-01T13:30:00,2,20776333,193000
OK,134,23,721,134,2014-08-01T13:35:00,1,20776782,193000
OK,85,36,721,85,2014-08-01T13:40:00,1,20777231,193000
OK,69,45,721,69,2014-08-01T13:45:00,1,20777680,193000
OK,69,45,721,69,2014-08-01T13:50:00,0,20778129,193000
OK,69,45,721,69,2014-08-01T13:55:00,0,20778578,193000
OK,116,27,721,116,2014-08-01T14:00:00,1,20779027,193000
OK,116,27,721,116,2014-08-01T14:05:00,1,20779476,193000
OK,116,27,721,116,2014-08-01T14:10:00,0,20779925,193000
OK,94,33,721,94,2014-08-01T14:15:00,2,20780374,193000
OK,95,33,721,95,2014-08-01T14:20:00,3,20780823,193000
OK,107,29,721,107,2014-08-01T14:25:00,1,20781272,193000
OK,107,29,721,107,2014-08-01T14:30:00,0,20781721,193000
OK,110,28,721,110,2014-08-01T14:35:00,2,20782170,193000
OK,110,28,721,110,2014-08-01T14:40:00,2,20782619,193000
OK,158,19,721,158,2014-08-01T14:45:00,2,20783068,193000
OK,64,49,721,64,2014-08-01T14:50:00,1,20783517,193000
OK,105,29,721,105,2014-08-01T14:55:00,2,20783966,193000
OK,154,20,721,154,2014-08-01T15:00:00,2,20784415,193000
OK,154,20,721,154,2014-08-01T15:05:00,3,20784864,193000
OK,153,20,721,153,2014-08-01T15:10:00,4,20785313,193000
OK,146,21,721,146,2014-08-01T15:15:00,3,20785762,193000
OK,84,37,721,84,2014-08-01T15:20:00,1,20786211,193000
OK,75,41,721,75,2014-08-01T15:25:00,1,20786660,193000
OK,75,41,721,75,2014-08-01T15:30:00,1,20787109,193000
OK,75,41,721,75,2014-08-01T15:35:00,0,20787558,193000
OK,75,41,721,75,2014-08-01T15:40:00,0,20788007,193000
OK,75,41,721,75,2014-08-01T15:45:00,0,20788456,193000
OK,75,41,721,75,2014-08-01T15:50:00,0,20788905,193000
OK,75,41,721,75,2014-08-01T15:55:00,0,20789354,193000
OK,148,21,721,148,2014-08-01T16:00:00,1,20789803,193000
OK,148,21,721,148,2014-08-01T16:05:00,1,20790252,193000
OK,148,21,721,148,2014-08-01T16:10:00,0,20790701,193000
OK,148,21,721,148,2014-08-01T16:15:00,0,20791150,193000
OK,148,21,721,148,2014-08-01T16:20:00,0,20791599,193000
OK,148,21,721,148,2014-08-01T16:25:00,0,20792048,193000
OK,120,26,721,120,2014-08-01T16:30:00,1,20792497,193000
OK,142,22,721,142,2014-08-01T16:35:00,2,20792946,193000
OK,162,19,721,162,2014-08-01T16:40:00,2,20793395,193000
OK,160,19,721,160,2014-08-01T16:45:00,1,20793844,193000
OK,160,19,721,160,2014-08-01T16:50:00,0,20794293,193000
OK,160,19,721,160,2014-08-01T16:55:00,0,20794742,193000
OK,160,19,721,160,2014-08-01T17:00:00,0,20795191,193000
OK,160,19,721,160,2014-08-01T17:05:00,0,20795640,193000
OK,160,19,721,160,2014-08-01T17:10:00,0,20796089,193000
OK,167,18,721,167,2014-08-01T17:15:00,1,20796538,193000
OK,74,42,721,74,2014-08-01T17:20:00,1,20796987,193000
OK,95,33,721,95,2014-08-01T17:25:00,2,20797436,193000
OK,214,14,721,214,2014-08-01T17:30:00,2,20797885,193000
OK,157,19,721,157,2014-08-01T17:35:00,3,20798334,193000
OK,100,31,721,100,2014-08-01T17:40:00,1,20798783,193000
OK,100,31,721,100,2014-08-01T17:45:00,0,20799232,193000
OK,100,31,721,100,2014-08-01T17:50:00,0,20799681,193000
OK,144,21,721,144,2014-08-01T17:55:00,1,20800130,193000
OK,144,21,721,144,2014-08-01T18:00:00,1,20800579,193000
OK,166,18,721,166,2014-08-01T18:05:00,1,20801028,193000
OK,166,18,721,166,2014-08-01T18:10:00,1,20801477,193000
OK,147,21,721,147,2014-08-01T18:15:00,1,20801926,193000
OK,147,21,721,147,2014-08-01T18:20:00,0,20802375,193000
OK,131,23,721,131,2014-08-01T18:25:00,1,20802824,193000
OK,131,23,721,131,2014-08-01T18:30:00,1,20803273,193000
OK,131,23,721,131,2014-08-01T18:35:00,0,20803722,193000
OK,131,23,721,131,2014-08-01T18:40:00,0,20804171,193000
OK,131,23,721,131,2014-08-01T18:45:00,0,20804620,193000
OK,131,23,721,131,2014-08-01T18:50:00,0,20805069,193000
OK,131,23,721,131,2014-08-01T18:55:00,0,20805518,193000
OK,134,23,721,134,2014-08-01T19:00:00,1,20805967,193000
OK,134,23,721,134,2014-08-01T19:05:00,0,20806416,193000
OK,81,38,721,81,2014-08-01T19:10:00,1,20806865,193000
OK,81,38,721,81,2014-08-01T19:15:00,1,20807314,193000
OK,81,38,721,81,2014-08-01T19:20:00,0,20807763,193000
OK,82,38,721,82,2014-08-01T19:25:00,1,20808212,193000
OK,82,38,721,82,2014-08-01T19:30:00,0,20808661,193000
OK,82,38,721,82,2014-08-01T19:35:00,0,20809110,193000
OK,82,38,721,82,2014-08-01T19:40:00,0,20809559,193000
OK,82,38,721,82,2014-08-01T19:45:00,0,20810008,193000
OK,82,38,721,82,2014-08-01T19:50:00,0,20810457,193000
OK,82,38,721,82,2014-08-01T19:55:00,0,20810906,193000
OK,82,38,721,82,2014-08-01T20:00:00,0,20811351,193000
OK,82,38,721,82,2014-08-01T20:05:00,0,20811525,193000
OK,82,38,721,82,2014-08-01T20:10:00,0,20811728,193000
OK,82,38,721,82,2014-08-01T20:15:00,0,20811934,193000
OK,82,38,721,82,2014-08-01T20:20:00,0,20812143,193000
OK,82,38,721,82,2014-08-01T20:25:00,0,20812361,193000
OK,82,38,721,82,2014-08-01T20:30:00,0,20812576,193000
OK,82,38,721,82,2014-08-01T20:40:00,0,20812986,193000
OK,82,38,721,82,2014-08-01T20:45:00,0,20813194,193000
OK,82,38,721,82,2014-08-01T20:50:00,0,20813405,193000
OK,82,38,721,82,2014-08-01T20:55:00,0,20813635,193000
OK,82,38,721,82,2014-08-01T21:00:00,0,20813873,193000
OK,82,38,721,82,2014-08-01T21:05:00,0,20814049,193000
OK,79,39,721,79,2014-08-01T21:10:00,1,20814289,193000
OK,79,39,721,79,2014-08-01T21:15:00,0,20814485,193000
OK,79,39,721,79,2014-08-01T21:20:00,0,20814692,193000
OK,79,39,721,79,2014-08-01T21:25:00,0,20814921,193000
OK,79,39,721,79,2014-08-01T21:30:00,0,20815197,193000
OK,79,39,721,79,2014-08-01T21:35:00,0,20815430,193000
OK,79,39,721,79,2014-08-01T21:40:00,0,20815654,193000
OK,79,39,721,79,2014-08-01T21:45:00,0,20815891,193000
OK,79,39,721,79,2014-08-01T21:50:00,0,20816132,193000
OK,79,39,721,79,2014-08-01T21:55:00,0,20816367,193000
OK,79,39,721,79,2014-08-01T22:00:00,0,20816635,193000
OK,79,39,721,79,2014-08-01T22:05:00,0,20817084,193000
OK,79,39,721,79,2014-08-01T22:10:00,0,20817406,193000
OK,79,39,721,79,2014-08-01T22:15:00,0,20817835,193000
OK,79,39,721,79,2014-08-01T22:20:00,0,20818125,193000
OK,79,39,721,79,2014-08-01T22:25:00,0,20818441,193000
OK,79,39,721,79,2014-08-01T22:30:00,0,20818775,193000
OK,79,39,721,79,2014-08-01T22:40:00,0,20819259,193000
OK,79,39,721,79,2014-08-01T22:45:00,0,20819547,193000
OK,79,39,721,79,2014-08-01T22:50:00,0,20819782,193000
OK,79,39,721,79,2014-08-01T22:55:00,0,20820035,193000
OK,79,39,721,79,2014-08-01T23:00:00,0,20820211,193000
OK,79,39,721,79,2014-08-01T23:05:00,0,20820464,193000
OK,79,39,721,79,2014-08-01T23:10:00,0,20820694,193000
OK,79,39,721,79,2014-08-01T23:15:00,0,20820882,193000
OK,79,39,721,79,2014-08-01T23:25:00,0,20821310,193000
OK,79,39,721,79,2014-08-01T23:30:00,0,20821536,193000
OK,79,39,721,79,2014-08-01T23:35:00,0,20821781,193000
OK,79,39,721,79,2014-08-01T23:40:00,0,20821960,193000
OK,79,39,721,79,2014-08-01T23:45:00,0,20822183,193000
OK,79,39,721,79,2014-08-01T23:50:00,0,20822450,193000
OK,79,39,721,79,2014-08-01T23:55:00,0,20822776,193000
OK,79,39,721,79,2014-08-02T00:00:00,0,20823074,193000
OK,79,39,721,79,2014-08-02T00:05:00,0,20823523,193000
OK,79,39,721,79,2014-08-02T00:10:00,0,20823972,193000
OK,79,39,721,79,2014-08-02T00:15:00,0,20824421,193000
OK,79,39,721,79,2014-08-02T00:20:00,0,20824870,193000
OK,79,39,721,79,2014-08-02T00:25:00,0,20825319,193000
OK,79,39,721,79,2014-08-02T00:30:00,0,20825768,193000
OK,79,39,721,79,2014-08-02T00:35:00,0,20826217,193000
OK,79,39,721,79,2014-08-02T00:40:00,0,20826666,193000
OK,79,39,721,79,2014-08-02T00:45:00,0,20827115,193000
OK,79,39,721,79,2014-08-02T00:50:00,0,20827564,193000
OK,79,39,721,79,2014-08-02T00:55:00,0,20828013,193000
OK,79,39,721,79,2014-08-02T01:00:00,0,20828462,193000
OK,79,39,721,79,2014-08-02T01:05:00,0,20828911,193000
OK,79,39,721,79,2014-08-02T01:10:00,0,20829360,193000
OK,79,39,721,79,2014-08-02T01:15:00,0,20829809,193000
OK,79,39,721,79,2014-08-02T01:20:00,0,20830258,193000
OK,79,39,721,79,2014-08-02T01:25:00,0,20830707,193000
OK,79,39,721,79,2014-08-02T01:30:00,0,20831156,193000
OK,79,39,721,79,2014-08-02T01:35:00,0,20831605,193000
OK,79,39,721,79,2014-08-02T01:40:00,0,20832054,193000
OK,79,39,721,79,2014-08-02T01:45:00,0,20832503,193000
OK,79,39,721,79,2014-08-02T01:50:00,0,20832952,193000
OK,79,39,721,79,2014-08-02T01:55:00,0,20833401,193000
OK,79,39,721,79,2014-08-02T02:00:00,0,20833850,193000
OK,79,39,721,79,2014-08-02T02:05:00,0,20834299,193000
OK,79,39,721,79,2014-08-02T02:10:00,0,20834748,193000
OK,79,39,721,79,2014-08-02T02:15:00,0,20835197,193000
OK,79,39,721,79,2014-08-02T02:20:00,0,20835646,193000
OK,79,39,721,79,2014-08-02T02:25:00,0,20836095,193000
OK,79,39,721,79,2014-08-02T02:30:00,0,20836544,193000
OK,79,39,721,79,2014-08-02T02:35:00,0,20836993,193000
OK,79,39,721,79,2014-08-02T02:40:00,0,20837442,193000
OK,79,39,721,79,2014-08-02T02:45:00,0,20837891,193000
OK,79,39,721,79,2014-08-02T02:50:00,0,20838340,193000
OK,79,39,721,79,2014-08-02T02:55:00,0,20838789,193000
OK,79,39,721,79,2014-08-02T03:00:00,0,20839238,193000
OK,79,39,721,79,2014-08-02T03:05:00,0,20839687,193000
OK,79,39,721,79,2014-08-02T03:10:00,0,20840136,193000
OK,79,39,721,79,2014-08-02T03:15:00,0,20840585,193000
OK,79,39,721,79,2014-08-02T03:20:00,0,20841034,193000
OK,79,39,721,79,2014-08-02T03:25:00,0,20841483,193000
OK,79,39,721,79,2014-08-02T03:30:00,0,20841932,193000
OK,79,39,721,79,2014-08-02T03:35:00,0,20842381,193000
OK,79,39,721,79,2014-08-02T03:40:00,0,20842830,193000
OK,79,39,721,79,2014-08-02T03:45:00,0,20843279,193000
OK,79,39,721,79,2014-08-02T03:50:00,0,20843728,193000
OK,79,39,721,79,2014-08-02T03:55:00,0,20844177,193000
OK,79,39,721,79,2014-08-02T04:00:00,0,20844626,193000
OK,79,39,721,79,2014-08-02T04:05:00,0,20844757,193000
OK,79,39,721,79,2014-08-02T04:10:00,0,20845087,193000
OK,79,39,721,79,2014-08-02T04:15:00,0,20845267,193000
OK,79,39,721,79,2014-08-02T04:20:00,0,20845623,193000
OK,79,39,721,79,2014-08-02T04:30:00,0,20846179,193000
OK,79,39,721,79,2014-08-02T04:35:00,0,20846546,193000
OK,79,39,721,79,2014-08-02T04:40:00,0,20846929,193000
OK,79,39,721,79,2014-08-02T04:45:00,0,20847188,193000
OK,79,39,721,79,2014-08-02T04:50:00,0,20847554,193000
OK,79,39,721,79,2014-08-02T04:55:00,0,20847911,193000
OK,79,39,721,79,2014-08-02T05:00:00,0,20848271,193000
OK,79,39,721,79,2014-08-02T05:05:00,0,20848435,193000
OK,79,39,721,79,2014-08-02T05:10:00,0,20848789,193000
OK,79,39,721,79,2014-08-02T05:15:00,0,20848981,193000
OK,79,39,721,79,2014-08-02T05:20:00,0,20849325,193000
OK,79,39,721,79,2014-08-02T05:25:00,0,20849850,193000
OK,79,39,721,79,2014-08-02T05:35:00,0,20850122,193000
OK,79,39,721,79,2014-08-02T05:40:00,0,20850415,193000
OK,79,39,721,79,2014-08-02T05:45:00,0,20850716,193000
OK,79,39,721,79,2014-08-02T05:50:00,0,20851074,193000
OK,79,39,721,79,2014-08-02T05:55:00,0,20851328,193000
OK,79,39,721,79,2014-08-02T06:00:00,0,20851631,193000
OK,79,39,721,79,2014-08-02T06:05:00,0,20852080,193000
OK,79,39,721,79,2014-08-02T06:10:00,0,20852529,193000
OK,79,39,721,79,2014-08-02T06:15:00,0,20852978,193000
OK,79,39,721,79,2014-08-02T06:20:00,0,20853427,193000
OK,79,39,721,79,2014-08-02T06:25:00,0,20853876,193000
OK,79,39,721,79,2014-08-02T06:30:00,0,20854325,193000
OK,119,26,721,119,2014-08-02T06:35:00,2,20854774,193000
OK,87,36,721,87,2014-08-02T06:40:00,1,20855223,193000
OK,87,36,721,87,2014-08-02T06:45:00,0,20855672,193000
OK,87,36,721,87,2014-08-02T06:50:00,0,20856121,193000
OK,86,36,721,86,2014-08-02T06:55:00,1,20856570,193000
OK,86,36,721,86,2014-08-02T07:00:00,1,20857019,193000
OK,86,36,721,86,2014-08-02T07:05:00,0,20857468,193000
OK,86,36,721,86,2014-08-02T07:10:00,0,20857917,193000
OK,86,36,721,86,2014-08-02T07:15:00,0,20858366,193000
OK,86,36,721,86,2014-08-02T07:20:00,0,20858815,193000
OK,86,36,721,86,2014-08-02T07:25:00,0,20859264,193000
OK,86,36,721,86,2014-08-02T07:30:00,0,20859713,193000
OK,86,36,721,86,2014-08-02T07:35:00,0,20860162,193000
OK,86,36,721,86,2014-08-02T07:40:00,0,20860611,193000
OK,86,36,721,86,2014-08-02T07:45:00,0,20861060,193000
OK,86,36,721,86,2014-08-02T07:50:00,0,20861509,193000
OK,86,36,721,86,2014-08-02T07:55:00,0,20861958,193000
OK,86,36,721,86,2014-08-02T08:00:00,0,20862407,193000
OK,86,36,721,86,2014-08-02T08:05:00,0,20862856,193000
OK,86,36,721,86,2014-08-02T08:10:00,0,20863305,193000
OK,158,19,721,158,2014-08-02T08:15:00,1,20863754,193000
OK,111,28,721,111,2014-08-02T08:20:00,2,20864203,193000
OK,80,39,721,80,2014-08-02T08:25:00,2,20864652,193000
OK,97,32,721,97,2014-08-02T08:30:00,2,20865101,193000
OK,99,31,721,99,2014-08-02T08:35:00,1,20865550,193000
OK,99,31,721,99,2014-08-02T08:40:00,0,20865999,193000
OK,175,17,721,175,2014-08-02T08:45:00,1,20866448,193000
OK,175,17,721,175,2014-08-02T08:50:00,1,20866897,193000
OK,175,17,721,175,2014-08-02T08:55:00,0,20867346,193000
OK,175,17,721,175,2014-08-02T09:00:00,0,20867795,193000
OK,175,17,721,175,2014-08-02T09:05:00,0,20868244,193000
OK,175,17,721,175,2014-08-02T09:10:00,0,20868693,193000
OK,175,17,721,175,2014-08-02T09:15:00,0,20869142,193000
OK,175,17,721,175,2014-08-02T09:20:00,0,20869591,193000
OK,175,17,721,175,2014-08-02T09:25:00,0,20870040,193000
OK,175,17,721,175,2014-08-02T09:30:00,0,20870489,193000
OK,175,17,721,175,2014-08-02T09:35:00,0,20870938,193000
OK,170,18,721,170,2014-08-02T09:40:00,1,20871387,193000
OK,170,18,721,170,2014-08-02T09:45:00,1,20871836,193000
OK,170,18,721,170,2014-08-02T09:50:00,0,20872285,193000
OK,170,18,721,170,2014-08-02T09:55:00,0,20872734,193000
OK,170,18,721,170,2014-08-02T10:00:00,0,20873183,193000
OK,100,31,721,100,2014-08-02T10:05:00,1,20873632,193000
OK,100,31,721,100,2014-08-02T10:10:00,1,20874081,193000
OK,100,31,721,100,2014-08-02T10:15:00,0,20874530,193000
OK,100,31,721,100,2014-08-02T10:20:00,0,20874979,193000
OK,100,31,721,100,2014-08-02T10:25:00,0,20875428,193000
OK,100,31,721,100,2014-08-02T10:30:00,0,20875877,193000
OK,123,25,721,123,2014-08-02T10:35:00,1,20876326,193000
OK,123,25,721,123,2014-08-02T10:40:00,1,20876775,193000
OK,209,15,721,209,2014-08-02T10:45:00,1,20877224,193000
OK,209,15,721,209,2014-08-02T10:50:00,1,20877673,193000
OK,209,15,721,209,2014-08-02T10:55:00,0,20878122,193000
OK,209,15,721,209,2014-08-02T11:00:00,0,20878571,193000
OK,209,15,721,209,2014-08-02T11:05:00,0,20879020,193000
OK,209,15,721,209,2014-08-02T11:10:00,0,20879469,193000
OK,209,15,721,209,2014-08-02T11:15:00,0,20879918,193000
OK,209,15,721,209,2014-08-02T11:20:00,0,20880367,193000
OK,209,15,721,209,2014-08-02T11:25:00,0,20880816,193000
OK,127,24,721,127,2014-08-02T11:30:00,2,20881265,193000
OK,99,31,721,99,2014-08-02T11:35:00,3,20881714,193000
OK,148,21,721,148,2014-08-02T11:40:00,3,20882163,193000
OK,151,20,721,151,2014-08-02T11:45:00,3,20882612,193000
OK,186,16,721,186,2014-08-02T11:50:00,2,20883061,193000
OK,84,37,721,84,2014-08-02T11:55:00,1,20883510,193000
OK,84,37,721,84,2014-08-02T12:00:00,0,20883959,193000
OK,107,29,721,107,2014-08-02T12:05:00,1,20884408,193000
OK,107,29,721,107,2014-08-02T12:10:00,1,20884857,193000
OK,107,29,721,107,2014-08-02T12:15:00,0,20885306,193000
OK,107,29,721,107,2014-08-02T12:20:00,0,20885755,193000
OK,107,29,721,107,2014-08-02T12:25:00,0,20886204,193000
OK,146,21,721,146,2014-08-02T12:30:00,1,20886653,193000
OK,146,21,721,146,2014-08-02T12:35:00,0,20887102,193000
OK,146,21,721,146,2014-08-02T12:40:00,0,20887551,193000
OK,146,21,721,146,2014-08-02T12:45:00,0,20888000,193000
OK,146,21,721,146,2014-08-02T12:50:00,0,20888449,193000
OK,146,21,721,146,2014-08-02T12:55:00,0,20888898,193000
OK,146,21,721,146,2014-08-02T13:00:00,0,20889347,193000
OK,146,21,721,146,2014-08-02T13:05:00,0,20889796,193000
OK,146,21,721,146,2014-08-02T13:10:00,0,20890245,193000
OK,148,21,721,148,2014-08-02T13:15:00,1,20890694,193000
OK,148,21,721,148,2014-08-02T13:20:00,1,20891143,193000
OK,148,21,721,148,2014-08-02T13:25:00,0,20891592,193000
OK,148,21,721,148,2014-08-02T13:30:00,0,20892041,193000
OK,148,21,721,148,2014-08-02T13:35:00,0,20892490,193000
OK,148,21,721,148,2014-08-02T13:40:00,0,20892939,193000
OK,148,21,721,148,2014-08-02T13:45:00,0,20893388,193000
OK,148,21,721,148,2014-08-02T13:50:00,0,20893837,193000
OK,148,21,721,148,2014-08-02T13:55:00,0,20894286,193000
OK,148,21,721,148,2014-08-02T14:00:00,0,20894735,193000
OK,205,15,721,205,2014-08-02T14:05:00,1,20895184,193000
OK,239,13,721,239,2014-08-02T14:10:00,2,20895633,193000
OK,274,11,721,274,2014-08-02T14:15:00,1,20896082,193000
OK,274,11,721,274,2014-08-02T14:20:00,0,20896531,193000
OK,274,11,721,274,2014-08-02T14:25:00,0,20896980,193000
OK,274,11,721,274,2014-08-02T14:30:00,0,20897429,193000
OK,274,11,721,274,2014-08-02T14:35:00,0,20897878,193000
OK,108,29,721,108,2014-08-02T14:40:00,1,20898327,193000
OK,220,14,721,220,2014-08-02T14:45:00,2,20898776,193000
OK,332,9,721,332,2014-08-02T14:50:00,1,20899225,193000
OK,133,23,721,133,2014-08-02T14:55:00,1,20899674,193000
OK,266,11,721,266,2014-08-02T15:00:00,2,20900123,193000
OK,266,11,721,266,2014-08-02T15:05:00,2,20900572,193000
OK,93,33,721,93,2014-08-02T15:10:00,0,20901021,193000
OK,93,33,721,93,2014-08-02T15:15:00,0,20901470,193000
OK,93,33,721,93,2014-08-02T15:20:00,0,20901919,193000
OK,93,33,721,93,2014-08-02T15:25:00,0,20902368,193000
OK,119,26,721,119,2014-08-02T15:30:00,2,20902817,193000
OK,119,26,721,119,2014-08-02T15:35:00,2,20903266,193000
OK,119,26,721,119,2014-08-02T15:40:00,0,20903715,193000
OK,119,26,721,119,2014-08-02T15:45:00,0,20904164,193000
OK,119,26,721,119,2014-08-02T15:50:00,0,20904613,193000
OK,119,26,721,119,2014-08-02T15:55:00,0,20905062,193000
OK,119,26,721,119,2014-08-02T16:00:00,2,20905511,193000
OK,119,26,721,119,2014-08-02T16:05:00,2,20905960,193000
OK,140,22,721,140,2014-08-02T16:10:00,1,20906409,193000
OK,140,22,721,140,2014-08-02T16:15:00,1,20906858,193000
OK,140,22,721,140,2014-08-02T16:20:00,0,20907307,193000
OK,140,22,721,140,2014-08-02T16:25:00,0,20907756,193000
OK,140,22,721,140,2014-08-02T16:30:00,0,20908205,193000
OK,140,22,721,140,2014-08-02T16:35:00,0,20908654,193000
OK,79,39,721,79,2014-08-02T16:40:00,1,20909103,193000
OK,79,39,721,79,2014-08-02T16:45:00,0,20909552,193000
OK,79,39,721,79,2014-08-02T16:50:00,0,20910001,193000
OK,79,39,721,79,2014-08-02T16:55:00,0,20910450,193000
OK,79,39,721,79,2014-08-02T17:00:00,0,20910899,193000
OK,79,39,721,79,2014-08-02T17:05:00,0,20911348,193000
OK,79,39,721,79,2014-08-02T17:10:00,0,20911797,193000
OK,79,39,721,79,2014-08-02T17:15:00,0,20912246,193000
OK,146,21,721,146,2014-08-02T17:20:00,1,20912695,193000
OK,146,21,721,146,2014-08-02T17:25:00,1,20913144,193000
OK,182,17,721,182,2014-08-02T17:30:00,1,20913593,193000
OK,182,17,721,182,2014-08-02T17:35:00,1,20914042,193000
OK,182,17,721,182,2014-08-02T17:40:00,0,20914491,193000
OK,182,17,721,182,2014-08-02T17:45:00,0,20914940,193000
OK,182,17,721,182,2014-08-02T17:50:00,0,20915389,193000
OK,182,17,721,182,2014-08-02T17:55:00,0,20915838,193000
OK,182,17,721,182,2014-08-02T18:00:00,0,20916287,193000
OK,182,17,721,182,2014-08-02T18:05:00,0,20916736,193000
OK,115,27,721,115,2014-08-02T18:10:00,1,20917185,193000
OK,115,27,721,115,2014-08-02T18:15:00,1,20917634,193000
OK,115,27,721,115,2014-08-02T18:20:00,0,20918083,193000
OK,115,27,721,115,2014-08-02T18:25:00,0,20918532,193000
OK,115,27,721,115,2014-08-02T18:30:00,0,20918981,193000
OK,112,28,721,112,2014-08-02T18:35:00,1,20919430,193000
OK,112,28,721,112,2014-08-02T18:40:00,1,20919879,193000
OK,112,28,721,112,2014-08-02T18:45:00,0,20920328,193000
OK,112,28,721,112,2014-08-02T18:50:00,0,20920777,193000
OK,112,28,721,112,2014-08-02T18:55:00,0,20921226,193000
OK,112,28,721,112,2014-08-02T19:00:00,0,20921675,193000
OK,112,28,721,112,2014-08-02T19:05:00,0,20922124,193000
OK,112,28,721,112,2014-08-02T19:10:00,0,20922573,193000
OK,112,28,721,112,2014-08-02T19:15:00,0,20923022,193000
OK,112,28,721,112,2014-08-02T19:20:00,0,20923471,193000
OK,112,28,721,112,2014-08-02T19:25:00,0,20923920,193000
OK,112,28,721,112,2014-08-02T19:30:00,0,20924369,193000
OK,112,28,721,112,2014-08-02T19:35:00,0,20924818,193000
OK,112,28,721,112,2014-08-02T19:40:00,0,20925267,193000